Snowfall_Accumulation
0.0 0.0 0.0 0.0 0.0 0.0 0.0 0.0 0.0 0.0 0.0 0.0 0.0 0.0 0.0 0.0 0.0 0.0 0.0 0.0 0.0 0.0 0.0 0.0 0.0 0.0 0.0 0.0 0.0 0.0 0.0 0.0 0.0 0.0 0.0 0.0 0.0 0.0 0.0 0.0 0.0 0.0 0.0 0.0
0.0 0.0 0.0 0.0 0.0 0.0 0.0 0.0 0.0 0.0 0.0 0.0 0.0 0.0 0.0 0.0 0.0 0.0 0.0 0.0 0.0 0.0 0.0 0.0 0.0 0.0 0.0 0.0 0.0 0.0 0.0 0.0 0.0 0.0 0.0 0.0 0.0 0.0 0.0 0.0 0.0 0.0 0.0 0.0
0.0 0.0 0.0 0.0 0.0 0.0 0.0 0.0 0.0 0.0 0.0 0.0 0.0 0.0 0.0 0.0 0.0 0.0 0.0 0.0 0.0 0.0 0.0 0.0 0.0 0.0 0.0 0.0 0.0 0.0 0.0 0.0 0.0 0.0 0.0 0.0 0.0 0.0 0.0 0.0 0.0 0.0 0.0 0.0
0.0 0.0 0.0 0.0 0.0 0.0 0.0 0.0 0.0 0.0 0.0 0.0 0.0 0.0 0.0 0.0 0.0 0.0 0.0 0.0 0.0 0.0 0.0 0.0 0.0 0.0 0.0 0.0 0.0 0.0 0.0 0.0 0.0 0.0 0.0 0.0 0.0 0.0 0.0 0.0 0.0 0.0 0.0 0.0
0.0 0.0 0.0 0.0 0.0 0.0 0.0 0.0 0.0 0.0 0.0 0.0 0.0 0.0 0.0 0.0 0.0 0.0 0.0 0.0 0.0 0.0 0.0 0.0 0.0 0.0 0.0 0.0 0.0 0.0 0.0 0.0 0.0 0.0 0.0 0.0 0.0 0.0 0.0 0.0 0.0 0.0 0.0 0.0
0.0 0.0 0.0 0.0 0.0 0.0 0.0 0.0 0.0 0.0 0.0 0.1 0.0 0.0 0.0 0.0 0.0 0.0 0.0 0.0 0.0 0.0 0.0 0.0 0.0 0.0 0.0 0.0 0.0 0.0 0.0 0.0 0.0 0.0 0.0 0.0 0.0 0.0 0.0 0.0 0.0 0.0 0.0 0.0
0.0 0.0 0.0 0.0 0.0 0.0 0.0 0.0 0.1 0.3 1.1 0.4 0.0 0.1 0.0 0.0 0.0 0.0 0.0 0.0 0.0 0.0 0.0 0.0 0.0 0.0 0.0 0.0 0.0 0.0 0.0 0.0 0.0 0.0 0.0 0.0 0.0 0.0 0.0 0.0 0.0 0.0 0.0 0.0
0.0 0.0 0.0 0.0 0.0 0.0 0.0 0.0 0.3 0.6 0.9 0.3 0.1 0.1 0.0 0.0 0.0 0.0 0.0 0.0 0.0 0.0 0.0 0.0 0.0 0.0 0.0 0.0 0.0 0.0 0.0 0.0 0.0 0.0 0.0 0.0 0.0 0.0 0.0 0.0 0.0 0.0 0.0 0.0
0.0 0.0 0.0 0.0 0.0 0.0 0.0 0.0 0.0 0.1 2.3 1.2 0.0 0.0 0.0 0.0 0.0 0.0 0.0 0.0 0.0 0.0 0.0 0.0 0.0 0.0 0.0 0.0 0.0 0.0 0.0 0.0 0.0 0.0 0.0 0.0 0.0 0.0 0.0 0.0 0.0 0.0 0.0 0.0
0.0 0.0 0.0 0.0 0.0 0.0 0.0 0.0 0.2 0.2 3.3 2.2 0.0 0.0 0.0 0.0 0.0 0.0 0.0 0.0 0.0 0.0 0.0 0.0 0.0 0.0 0.0 0.0 0.0 0.0 0.0 0.0 0.0 0.0 0.0 0.0 0.0 0.0 0.0 0.0 0.0 0.0 0.0 0.0
0.0 0.0 0.0 0.0 0.0 0.0 0.0 0.0 0.0 0.0 0.2 1.2 1.2 0.0 0.0 0.0 0.0 0.0 0.0 0.0 0.0 0.0 0.0 0.0 0.0 0.0 0.0 0.0 0.0 0.0 0.0 0.0 0.0 0.0 0.0 0.0 0.0 0.0 0.0 0.0 0.0 0.0 0.0 0.0
0.0 0.0 1.2 0.0 0.0 0.0 0.0 0.0 0.0 0.6 0.2 0.3 0.7 0.8 0.0 0.0 0.0 0.0 0.0 0.0 0.0 0.0 0.0 0.0 0.0 0.0 0.0 0.0 0.0 0.0 0.0 0.0 0.0 0.0 0.0 0.0 0.0 0.0 0.0 0.0 0.0 0.0 0.0 0.0
0.0 0.3 2.8 0.7 0.0 0.0 0.0 0.0 0.0 0.0 0.6 2.3 5.3 1.1 0.0 0.0 0.0 0.0 0.0 0.0 0.0 0.0 0.0 0.0 0.0 0.0 0.0 0.0 0.0 0.0 0.0 0.0 0.0 0.0 0.0 0.0 0.0 0.0 0.0 0.0 0.0 0.0 0.0 0.0
nan 0.0 0.2 0.7 0.1 0.0 0.1 0.0 0.0 0.0 2.3 0.5 0.4 0.0 0.0 0.0 0.0 0.0 0.0 0.0 0.0 0.0 0.0 0.0 0.0 0.0 0.0 0.0 0.0 0.0 0.0 0.0 0.0 0.0 0.0 0.0 0.0 0.0 0.0 0.0 0.0 0.0 0.0 0.0
0.0 2.2 0.0 0.0 0.0 0.0 0.0 0.0 0.0 0.0 0.0 0.3 0.0 0.0 0.0 0.0 0.0 0.0 0.0 0.0 0.0 0.0 0.0 0.0 0.0 0.0 0.0 0.0 0.0 0.0 0.0 0.0 0.0 0.0 0.0 0.0 0.0 0.0 0.0 0.1 0.1 0.1 0.1 0.0
0.0 3.8 0.3 1.8 0.0 0.0 0.1 0.0 0.0 0.0 0.0 0.0 0.0 0.0 0.0 0.0 0.0 0.0 0.0 0.0 0.0 0.0 0.0 0.0 0.0 0.0 0.0 0.0 0.0 0.0 0.0 0.0 0.0 0.0 0.0 0.0 0.1 0.2 0.2 0.3 0.2 0.2 0.2 0.2
0.1 1.7 6.0 15.5 0.3 0.2 10.3 0.1 0.0 0.0 0.0 0.0 0.0 0.0 0.0 0.0 0.0 0.0 0.0 0.0 0.0 0.0 0.0 0.0 0.0 0.0 0.0 0.0 0.0 0.0 0.0 0.0 0.1 0.2 0.5 0.4 0.4 0.5 0.3 0.3 0.4 0.3 0.3 0.3
0.5 2.8 4.3 16.4 7.1 36.2 1.9 0.0 0.0 0.0 0.0 0.0 0.0 0.0 0.0 0.0 0.0 0.0 0.0 0.0 0.0 0.0 0.0 0.0 0.0 0.0 0.0 0.0 0.0 0.0 0.0 0.1 0.2 0.4 1.0 0.8 0.5 1.2 0.6 0.5 0.6 0.4 0.4 0.6
0.0 0.3 13.0 30.2 20.8 0.6 0.0 0.0 0.0 0.0 0.0 0.0 0.0 0.0 0.0 0.0 0.0 0.0 0.0 0.0 0.0 0.0 0.0 0.0 0.0 0.0 0.0 0.0 0.0 0.1 0.1 0.1 0.2 0.2 0.4 0.5 0.8 1.6 0.8 2.4 0.9 0.7 1.5 1.3
0.1 0.0 0.8 26.4 28.9 23.8 0.1 0.0 0.0 0.0 1.2 0.1 0.0 0.0 0.0 0.0 0.2 0.0 0.0 0.0 0.0 0.0 0.0 0.0 0.0 0.0 0.0 0.0 0.0 0.2 0.2 0.4 0.4 0.2 0.2 0.3 0.8 2.8 2.2 1.0 1.8 2.1 2.4 2.4
4.9 9.1 21.3 18.8 25.1 9.1 0.3 0.1 0.0 5.7 1.5 1.0 0.2 0.1 0.1 0.3 0.0 0.0 0.0 0.0 0.0 0.0 0.0 0.0 0.0 0.0 0.0 0.1 0.3 0.3 0.3 0.4 0.5 0.8 0.8 1.1 1.1 3.4 1.7 2.3 1.9 3.2 4.5 2.9
1.7 10.3 22.3 15.9 26.2 31.5 0.1 0.1 0.4 0.4 0.2 0.3 0.1 0.0 0.0 0.0 0.0 0.0 0.0 0.0 0.0 0.0 0.0 0.0 0.0 0.0 0.0 0.4 0.5 0.7 0.5 0.6 1.2 1.6 2.0 2.5 4.1 3.3 3.3 7.6 5.0 6.7 6.8 6.8
5.6 1.0 6.9 1.5 4.5 0.1 0.0 0.1 0.0 0.1 0.3 0.1 0.1 0.0 0.0 0.0 0.0 0.0 0.0 0.0 0.0 0.0 0.0 0.0 1.1 1.0 0.0 1.4 1.4 1.9 1.2 1.5 2.5 5.0 7.1 7.0 5.8 5.7 5.7 8.9 6.5 8.3 7.9 9.2
0.7 0.0 1.9 1.9 0.3 0.1 0.1 0.0 0.0 0.0 0.0 0.0 0.0 0.0 0.0 0.0 0.0 0.0 0.0 0.0 0.0 0.6 1.0 1.4 2.0 2.6 2.4 2.2 2.7 3.2 2.7 2.9 9.3 9.4 5.2 4.1 5.3 3.6 4.8 5.7 6.9 10.2 8.9 8.4
0.3 0.2 0.7 1.2 0.0 0.1 0.1 0.1 0.0 0.0 0.0 0.0 0.0 0.0 0.0 0.0 0.0 0.0 0.5 0.8 0.5 0.9 1.3 1.9 2.5 2.4 2.3 2.0 2.4 3.6 3.5 4.1 6.2 6.8 3.9 5.1 6.7 6.6 4.2 3.9 6.2 5.7 3.6 8.3
0.0 0.0 0.2 1.7 0.0 0.0 0.0 0.0 0.0 0.0 0.0 0.1 0.1 0.2 0.2 0.3 0.2 0.4 0.6 0.4 0.6 1.1 1.5 2.0 2.3 2.2 2.7 3.4 3.8 4.9 5.8 5.6 6.4 4.1 5.7 5.3 4.9 4.3 4.0 4.4 4.6 nan nan nan
Water_Equivalent
0.00 0.00 0.00 0.00 0.00 0.00 0.00 0.00 0.00 0.00 0.00 0.00 0.00 0.00 0.00 0.00 0.00 0.00 0.00 0.00 0.00 0.00 0.00 0.00 0.00 0.00 0.00 0.00 0.00 0.00 0.00 0.00 0.00 0.00 0.00 0.00 0.00 0.00 0.00 0.00 0.00 0.00 0.00 0.00
0.00 0.00 0.00 0.00 0.00 0.00 0.00 0.00 0.00 0.00 0.00 0.00 0.00 0.00 0.00 0.00 0.00 0.00 0.00 0.00 0.00 0.00 0.00 0.00 0.00 0.00 0.00 0.00 0.00 0.00 0.00 0.00 0.00 0.00 0.00 0.00 0.00 0.00 0.00 0.00 0.00 0.00 0.00 0.00
0.00 0.00 0.00 0.00 0.00 0.00 0.00 0.00 0.00 0.00 0.00 0.00 0.00 0.00 0.00 0.00 0.00 0.00 0.00 0.00 0.00 0.00 0.00 0.00 0.00 0.00 0.00 0.00 0.00 0.00 0.00 0.00 0.00 0.00 0.00 0.00 0.00 0.00 0.00 0.00 0.00 0.00 0.00 0.00
0.00 0.00 0.00 0.00 0.00 0.00 0.00 0.00 0.00 0.00 0.00 0.00 0.00 0.00 0.00 0.00 0.00 0.00 0.00 0.00 0.00 0.00 0.00 0.00 0.00 0.00 0.00 0.00 0.00 0.00 0.00 0.00 0.00 0.00 0.00 0.00 0.00 0.00 0.00 0.00 0.00 0.00 0.00 0.00
0.00 0.00 0.00 0.00 0.00 0.00 0.00 0.00 0.00 0.00 0.00 0.00 0.00 0.00 0.00 0.00 0.00 0.00 0.00 0.00 0.00 0.00 0.00 0.00 0.00 0.00 0.00 0.00 0.00 0.00 0.00 0.00 0.00 0.00 0.00 0.00 0.00 0.00 0.00 0.00 0.00 0.00 0.00 0.00
0.00 0.00 0.00 0.00 0.00 0.00 0.00 0.00 0.00 0.00 0.00 0.02 0.00 0.00 0.00 0.00 0.00 0.00 0.00 0.00 0.00 0.00 0.00 0.00 0.00 0.00 0.00 0.00 0.00 0.00 0.00 0.00 0.00 0.00 0.00 0.00 0.00 0.00 0.00 0.00 0.00 0.00 0.00 0.00
0.00 0.00 0.00 0.00 0.00 0.00 0.00 0.00 0.03 0.07 0.23 0.09 0.00 0.02 0.00 0.00 0.00 0.00 0.00 0.00 0.00 0.00 0.00 0.00 0.00 0.00 0.00 0.00 0.00 0.00 0.00 0.00 0.00 0.00 0.00 0.00 0.00 0.00 0.00 0.00 0.00 0.00 0.00 0.00
0.00 0.00 0.00 0.00 0.00 0.00 0.00 0.00 0.06 0.12 0.19 0.07 0.02 0.03 0.00 0.00 0.00 0.00 0.00 0.00 0.00 0.00 0.00 0.00 0.00 0.00 0.00 0.00 0.00 0.00 0.00 0.00 0.00 0.00 0.00 0.00 0.00 0.00 0.00 0.00 0.00 0.00 0.00 0.00
0.00 0.00 0.00 0.00 0.00 0.00 0.00 0.00 0.00 0.02 0.41 0.27 0.00 0.00 0.00 0.00 0.00 0.00 0.00 0.00 0.00 0.00 0.00 0.00 0.00 0.00 0.00 0.00 0.00 0.00 0.00 0.00 0.00 0.00 0.00 0.00 0.00 0.00 0.00 0.00 0.00 0.00 0.00 0.00
0.00 0.00 0.00 0.00 0.00 0.00 0.00 0.00 0.04 0.04 0.55 0.34 0.00 0.00 0.00 0.00 0.00 0.00 0.00 0.00 0.00 0.00 0.00 0.00 0.00 0.00 0.00 0.00 0.00 0.00 0.00 0.00 0.00 0.00 0.00 0.00 0.00 0.00 0.00 0.00 0.00 0.00 0.00 0.00
0.00 0.00 0.00 0.00 0.00 0.00 0.00 0.00 0.00 0.00 0.04 0.24 0.23 0.01 0.00 0.00 0.00 0.00 0.00 0.00 0.00 0.00 0.00 0.00 0.00 0.00 0.00 0.00 0.00 0.00 0.00 0.00 0.00 0.00 0.00 0.00 0.00 0.00 0.00 0.00 0.00 0.00 0.00 0.00
0.00 0.00 0.28 0.00 0.00 0.00 0.00 0.00 0.00 0.14 0.05 0.07 0.16 0.15 0.00 0.00 0.00 0.00 0.00 0.00 0.00 0.00 0.00 0.00 0.00 0.00 0.00 0.00 0.00 0.00 0.00 0.00 0.00 0.00 0.00 0.00 0.00 0.00 0.00 0.00 0.00 0.00 0.00 0.00
0.00 0.08 0.61 0.15 0.00 0.00 0.00 0.00 0.00 0.01 0.16 0.49 0.94 0.22 0.00 0.00 0.00 0.00 0.00 0.00 0.00 0.00 0.00 0.00 0.00 0.00 0.00 0.00 0.00 0.00 0.00 0.00 0.00 0.00 0.00 0.00 0.00 0.00 0.00 0.00 0.00 0.00 0.00 0.00
nan 0.01 0.04 0.18 0.01 0.00 0.03 0.01 0.00 0.00 0.47 0.13 0.11 0.01 0.00 0.00 0.00 0.00 0.00 0.00 0.00 0.00 0.00 0.00 0.00 0.00 0.00 0.00 0.00 0.00 0.00 0.00 0.00 0.00 0.00 0.00 0.00 0.00 0.00 0.00 0.00 0.00 0.00 0.00
0.00 0.54 0.01 0.00 0.00 0.00 0.01 0.01 0.00 0.00 0.00 0.06 0.00 0.00 0.00 0.00 0.00 0.00 0.00 0.00 0.00 0.00 0.00 0.00 0.00 0.00 0.00 0.00 0.00 0.00 0.00 0.00 0.00 0.00 0.00 0.00 0.00 0.00 0.01 0.02 0.03 0.03 0.03 0.00
0.00 0.90 0.07 0.40 0.00 0.00 0.04 0.01 0.01 0.00 0.00 0.00 0.00 0.00 0.00 0.00 0.00 0.00 0.00 0.00 0.00 0.00 0.00 0.00 0.00 0.00 0.00 0.00 0.00 0.00 0.00 0.00 0.00 0.00 0.00 0.00 0.03 0.05 0.05 0.06 0.05 0.04 0.03 0.03
0.02 0.51 1.57 2.70 0.06 0.05 1.44 0.04 0.00 0.00 0.00 0.00 0.01 0.00 0.00 0.00 0.00 0.00 0.00 0.00 0.00 0.00 0.00 0.00 0.00 0.00 0.00 0.00 0.00 0.00 0.00 0.00 0.03 0.05 0.09 0.08 0.07 0.08 0.06 0.06 0.05 0.05 0.04 0.04
0.16 0.81 1.22 3.21 1.54 4.21 0.34 0.00 0.00 0.00 0.00 0.00 0.00 0.00 0.00 0.00 0.00 0.00 0.00 0.00 0.00 0.00 0.00 0.00 0.00 0.00 0.00 0.00 0.00 0.00 0.01 0.02 0.04 0.07 0.15 0.12 0.07 0.16 0.08 0.07 0.08 0.06 0.05 0.08
0.00 0.10 2.49 4.14 2.68 0.13 0.01 0.00 0.00 0.01 0.01 0.00 0.00 0.00 0.00 0.00 0.00 0.00 0.00 0.00 0.00 0.00 0.00 0.00 0.00 0.00 0.00 0.00 0.00 0.02 0.03 0.03 0.03 0.04 0.06 0.07 0.11 0.21 0.10 0.29 0.11 0.09 0.17 0.14
0.02 0.01 0.24 3.86 3.90 2.85 0.02 0.00 0.00 0.00 0.24 0.02 0.01 0.01 0.00 0.01 0.06 0.00 0.00 0.00 0.00 0.00 0.00 0.00 0.00 0.00 0.00 0.00 0.00 0.03 0.04 0.06 0.05 0.04 0.03 0.05 0.11 0.34 0.27 0.12 0.22 0.26 0.28 0.25
0.90 1.87 3.50 3.10 3.58 1.52 0.08 0.03 0.00 0.70 0.29 0.22 0.05 0.02 0.03 0.08 0.00 0.00 0.00 0.00 0.00 0.00 0.00 0.00 0.00 0.00 0.00 0.02 0.04 0.04 0.04 0.06 0.07 0.11 0.11 0.13 0.14 0.41 0.22 0.28 0.24 0.39 0.48 0.30
0.25 1.40 3.40 2.68 3.46 3.82 0.04 0.02 0.07 0.08 0.06 0.07 0.02 0.00 0.01 0.00 0.00 0.00 0.00 0.00 0.00 0.00 0.00 0.00 0.00 0.00 0.00 0.06 0.08 0.09 0.06 0.08 0.15 0.19 0.22 0.28 0.48 0.40 0.41 0.87 0.56 0.78 0.73 0.73
0.70 0.17 1.07 0.30 0.78 0.02 0.01 0.03 0.01 0.03 0.09 0.04 0.02 0.01 0.00 0.00 0.00 0.00 0.00 0.00 0.00 0.00 0.00 0.00 0.14 0.13 0.00 0.18 0.18 0.22 0.13 0.17 0.25 0.51 0.74 0.74 0.66 0.67 0.68 1.03 0.68 0.95 0.85 1.00
0.13 0.01 0.36 0.30 0.06 0.03 0.03 0.01 0.00 0.01 0.01 0.00 0.01 0.01 0.00 0.01 0.00 0.00 0.00 0.01 0.00 0.08 0.15 0.17 0.24 0.27 0.26 0.24 0.28 0.33 0.27 0.28 1.00 1.01 0.52 0.40 0.53 0.43 0.53 0.73 0.87 1.27 1.03 0.88
0.07 0.05 0.14 0.19 0.00 0.01 0.02 0.02 0.00 0.00 0.00 0.00 0.00 0.00 0.00 0.00 0.00 0.00 0.08 0.12 0.07 0.11 0.14 0.20 0.25 0.25 0.23 0.20 0.23 0.35 0.32 0.40 0.62 0.68 0.36 0.51 0.73 0.80 0.47 0.42 0.74 0.64 0.43 0.94
0.01 0.00 0.03 0.24 0.00 0.01 0.01 0.00 0.00 0.00 0.00 0.02 0.02 0.04 0.04 0.05 0.04 0.06 0.09 0.07 0.09 0.14 0.16 0.20 0.23 0.21 0.22 0.28 0.33 0.45 0.62 0.61 0.63 0.37 0.56 0.55 0.55 0.49 0.43 0.44 0.46 nan nan nan
SL_Ratio
nan nan nan nan nan nan nan nan nan nan nan nan nan nan nan nan nan nan nan nan nan nan nan nan nan nan nan nan nan nan nan nan nan nan nan nan nan nan nan nan nan nan nan nan
nan nan nan nan nan nan nan nan nan nan nan nan nan nan nan nan nan nan nan nan nan nan nan nan nan nan nan nan nan nan nan nan nan nan nan nan nan nan nan nan nan nan nan nan
nan nan nan nan nan nan nan nan nan nan nan nan nan nan nan nan nan nan nan nan nan nan nan nan nan nan nan nan nan nan nan nan nan nan nan nan nan nan nan nan nan nan nan nan
nan nan nan nan nan nan nan nan nan nan nan nan nan nan nan nan nan nan nan nan nan nan nan nan nan nan nan nan nan nan nan nan nan nan nan nan nan nan nan nan nan nan nan nan
nan nan nan nan nan nan nan nan nan nan nan nan nan nan nan nan nan nan nan nan nan nan nan nan nan nan nan nan nan nan nan nan nan nan nan nan nan nan nan nan nan nan nan nan
nan nan nan nan nan nan nan nan nan nan nan 4.4 nan nan nan nan nan nan nan nan nan nan nan nan nan nan nan nan nan nan nan nan nan nan nan nan nan nan nan nan nan nan nan nan
nan nan nan nan nan nan nan nan 4.2 4.3 4.6 4.3 nan 4.1 nan nan nan nan nan nan nan nan nan nan nan nan nan nan nan nan nan nan nan nan nan nan nan nan nan nan nan nan nan nan
nan nan nan nan nan nan nan nan 4.0 5.3 4.8 4.0 4.4 4.3 nan nan nan nan nan nan nan nan nan nan nan nan nan nan nan nan nan nan nan nan nan nan nan nan nan nan nan nan nan nan
0.0 4.0 nan nan nan nan nan nan nan 4.4 5.5 4.5 nan nan nan nan nan nan nan nan nan nan nan nan nan nan nan nan nan nan nan nan nan nan nan nan nan nan nan nan nan nan nan nan
nan 4.5 nan nan nan nan nan nan 4.5 4.4 6.0 6.5 nan nan nan nan nan nan nan nan nan nan nan nan nan nan nan nan nan nan nan nan nan nan nan nan nan nan nan nan nan nan nan nan
nan nan nan nan nan nan nan nan nan nan 4.3 5.0 5.2 4.4 nan nan nan nan nan nan nan nan nan nan nan nan nan nan nan nan nan nan nan nan nan nan nan nan nan nan nan nan nan nan
nan nan 4.1 nan nan nan nan nan nan 4.1 4.9 4.4 4.1 5.1 nan nan nan nan nan nan nan nan nan nan nan nan nan nan nan nan nan nan nan nan nan nan nan nan nan nan nan nan nan nan
nan 3.2 4.6 4.6 3.3 nan nan nan nan 3.0 3.5 4.7 5.6 4.9 nan nan nan nan nan nan nan nan nan nan nan nan nan nan nan nan nan nan nan nan nan nan nan nan nan nan nan nan nan nan
nan 2.7 3.6 3.8 4.1 nan 4.1 3.6 2.9 nan 4.8 3.8 3.8 3.2 nan nan nan nan nan nan nan nan nan nan nan nan nan nan nan nan nan nan nan nan nan nan nan nan nan nan nan nan nan nan
nan 4.1 2.5 nan nan nan 3.1 3.3 nan nan nan 4.5 nan 3.3 nan nan nan nan nan nan nan nan nan nan nan nan nan nan nan nan nan nan nan nan nan nan nan nan 3.5 3.8 4.1 4.2 4.2 nan
nan 4.2 4.2 4.6 5.8 0.0 3.3 2.7 2.6 3.3 nan nan nan nan nan nan nan nan nan nan nan nan nan nan nan nan nan nan nan nan nan nan nan 0.0 5.0 5.0 4.3 4.5 4.6 4.6 4.7 4.8 5.2 5.3
2.8 3.4 3.8 5.7 4.5 4.3 7.1 3.6 0.0 0.0 nan nan 3.3 nan 2.0 nan nan nan nan nan nan nan nan nan nan nan nan nan nan nan nan 3.8 4.5 4.8 5.1 5.2 5.4 6.4 5.4 5.5 6.6 7.0 6.9 6.4
3.3 3.5 3.5 5.1 4.6 8.6 5.4 nan nan nan nan 0.0 5.0 3.3 nan nan nan nan nan nan nan nan nan nan nan nan nan nan nan nan 3.5 4.3 5.0 5.6 6.7 7.2 7.0 7.6 7.6 7.6 7.6 7.2 7.1 7.8
5.0 3.3 5.2 7.3 7.8 4.5 4.1 nan 10.0 4.2 4.0 nan nan nan nan nan nan nan nan nan nan nan nan nan nan nan nan nan nan 4.2 5.0 5.1 5.5 5.7 6.4 7.1 7.5 7.8 7.9 8.3 8.2 8.2 8.9 9.2
3.2 3.0 3.3 6.8 7.4 8.4 4.6 5.0 nan nan 4.8 3.5 3.3 3.2 3.3 2.8 4.1 nan nan nan nan nan nan nan nan nan nan nan 0.0 5.6 6.7 7.1 6.9 6.6 6.5 7.1 7.7 8.0 8.3 8.1 8.4 8.1 8.4 9.6
5.4 4.9 6.1 6.1 7.0 6.0 3.5 4.0 2.5 8.1 5.0 4.2 4.1 3.6 3.9 3.4 nan nan nan nan nan 0.0 3.3 0.0 0.0 nan nan 5.1 6.3 7.4 7.1 7.3 6.6 7.0 7.6 8.1 8.0 8.3 8.1 8.0 7.8 8.2 9.5 9.4
6.9 7.4 6.6 5.9 7.6 8.2 3.4 4.1 6.0 4.4 4.1 3.9 3.8 4.3 3.5 0.0 nan nan nan nan nan nan 5.0 0.0 nan 0.0 0.0 7.1 6.8 7.7 7.8 7.8 8.1 8.5 8.9 8.8 8.6 8.2 8.1 8.7 9.0 8.6 9.3 9.4
8.1 5.7 6.4 4.8 5.7 3.4 3.3 3.3 2.8 3.1 3.7 3.8 3.7 3.7 5.0 4.3 2.5 nan nan nan nan nan nan nan 7.5 8.0 6.0 8.0 8.0 8.3 8.7 9.1 10.1 9.7 9.6 9.5 8.8 8.6 8.4 8.7 9.5 8.7 9.3 9.2
5.5 4.4 5.3 6.3 5.6 4.5 4.1 3.6 0.0 3.5 3.5 0.0 3.9 3.8 4.2 4.1 nan nan 10.0 5.0 nan 6.6 6.9 7.9 8.5 9.5 9.3 9.3 9.6 9.7 10.0 10.2 9.3 9.4 9.9 10.3 10.0 8.3 9.0 7.9 8.0 8.0 8.7 9.5
4.5 3.6 5.1 6.0 4.0 5.4 4.3 4.0 3.0 nan nan nan nan nan 4.0 nan nan nan 6.1 6.3 6.4 8.3 9.0 9.6 9.7 9.8 9.9 10.0 10.7 10.3 10.7 10.2 9.9 10.0 10.7 9.9 9.1 8.2 9.1 9.3 8.4 8.9 8.5 8.8
5.8 7.5 7.0 7.2 4.5 4.1 5.0 nan nan nan nan 4.7 4.9 5.4 5.7 5.5 5.5 6.3 6.6 6.5 6.9 7.9 9.1 9.8 10.3 10.7 12.0 11.9 11.7 10.9 9.4 9.2 10.1 10.9 10.2 9.6 8.9 8.9 9.3 10.0 9.8 nan nan nan